EW4378 Brookhaven NY US current weather conditions

sailwx.info

Wind from 090 at 19 knots gusting 27

Air temperature 23.9° C
Dewpoint 22.0° C

Last reported at 2020-Jul-10 19:00 UTC.
Time now 2020-Jul-10 19:37 UTC

Location: N 40°46' W 072°55'.
View on Google Maps.

See reports from other nearby stations

  
Tides and Currents Weather Stations Pressure Air Temp Water Temp Dewpoint Dewpoint Depression Visibility Wind Speed Wind Dir Waves Ship Positions
date/time (UTC)wind fromknots sea level pressurealtimeterstation pressurevisibilityair tempwater tempwave heightnotes
2020-Jul-10 19:00 090 19 gusting 27 23.9
2020-Jul-10 18:45 081 18 gusting 26 23.3
2020-Jul-10 18:30 057 20 gusting 26 23.3
2020-Jul-10 18:15 063 14 gusting 22 23.3
2020-Jul-10 18:00 092 16 gusting 26 23.3
2020-Jul-10 17:45 073 19 gusting 24 23.3
2020-Jul-10 17:30 065 16 gusting 23 23.3
2020-Jul-10 17:15 070 16 gusting 23 23.3
2020-Jul-10 17:00 088 17 gusting 24 22.8
2020-Jul-10 16:46 064 14 gusting 25 23.3
2020-Jul-10 16:32 084 14 gusting 22 23.3
2020-Jul-10 16:16 070 17 gusting 22 23.9
2020-Jul-10 16:02 065 16 gusting 21 23.9
2020-Jul-10 15:46 052 15 gusting 22 23.3
2020-Jul-10 15:32 070 13 gusting 19 23.3
2020-Jul-10 15:16 082 13 gusting 19 23.9
2020-Jul-10 15:01 064 15 gusting 19 23.9
2020-Jul-10 14:46 070 14 gusting 19 23.9
2020-Jul-10 14:30 070 12 gusting 18 23.9
2020-Jul-10 14:16 078 12 gusting 18 24.4
2020-Jul-10 14:01 089 13 gusting 16 24.4
2020-Jul-10 13:46 073 9 gusting 16 24.4
2020-Jul-10 13:31 068 10 gusting 16 24.4
2020-Jul-10 13:16 084 13 gusting 16 24.4
2020-Jul-10 13:01 066 9 gusting 14 24.4
2020-Jul-10 12:46 066 11 gusting 14 24.4
2020-Jul-10 12:30 083 10 gusting 13 24.4
2020-Jul-10 12:15 075 9 gusting 14 24.4
2020-Jul-10 12:00 056 10 gusting 13 23.9
2020-Jul-10 11:46 078 8 gusting 13 23.9
2020-Jul-10 11:30 050 6 gusting 11 23.9
2020-Jul-10 11:15 086 6 gusting 9 23.9
2020-Jul-10 11:01 082 4 gusting 9 23.9
2020-Jul-10 10:45 078 8 gusting 12 23.9
2020-Jul-10 10:30 089 6 gusting 10 23.9
2020-Jul-10 10:15 062 6 gusting 8 23.9
2020-Jul-10 10:01 056 5 gusting 8 23.9
2020-Jul-10 09:45 056 5 gusting 8 23.3
2020-Jul-10 09:30 065 4 gusting 6 23.3
2020-Jul-10 09:15 059 4 gusting 6 23.9
2020-Jul-10 09:00 069 4 gusting 7 23.9
2020-Jul-10 08:45 079 5 gusting 7 23.9
2020-Jul-10 08:31 113 6 gusting 8 23.9
2020-Jul-10 08:30 096 6 gusting 8 23.9
2020-Jul-10 08:16 097 4 gusting 6 23.9
2020-Jul-10 08:01 072 4 gusting 7 23.9
2020-Jul-10 07:46 090 5 gusting 7 23.9
2020-Jul-10 07:32 072 4 gusting 6 23.9
2020-Jul-10 07:16 114 4 gusting 6 23.9
2020-Jul-10 07:01 098 3 gusting 7 23.9
2020-Jul-10 06:46 079 3 gusting 8 23.9
2020-Jul-10 06:31 105 3 gusting 7 23.9
2020-Jul-10 06:16 111 3 gusting 6 23.9
2020-Jul-10 06:01 096 6 gusting 7 23.9
2020-Jul-10 05:46 070 4 gusting 6 23.9
2020-Jul-10 05:31 068 3 gusting 6 23.9
2020-Jul-10 05:16 069 5 gusting 6 23.9
2020-Jul-10 05:01 088 3 gusting 6 23.9
2020-Jul-10 04:45 096 4 gusting 8 23.9
2020-Jul-10 04:31 109 4 gusting 9 23.9
2020-Jul-10 04:16 096 5 gusting 8 23.9
2020-Jul-10 04:00 094 4 gusting 6 23.9
2020-Jul-10 03:45 082 5 gusting 7 23.9
2020-Jul-10 03:31 101 4 gusting 8 23.9
2020-Jul-10 03:17 124 5 gusting 9 23.9
2020-Jul-10 03:00 118 4 gusting 7 23.9
2020-Jul-10 02:45 099 3 gusting 6 23.9
2020-Jul-10 02:31 121 4 gusting 6 23.9
2020-Jul-10 02:16 105 5 gusting 7 23.9
2020-Jul-10 02:00 117 2 gusting 4 23.9
2020-Jul-10 01:46 094 3 gusting 6 23.9
2020-Jul-10 01:30 115 2 gusting 5 23.9
2020-Jul-10 01:15 097 2 gusting 5 23.9
2020-Jul-10 01:00 057 2 gusting 3 23.9
2020-Jul-10 00:45 103 2 gusting 5 24.4
2020-Jul-10 00:30 136 2 gusting 5 24.4
2020-Jul-10 00:15 125 2 gusting 5 24.4
2020-Jul-10 00:00 139 3 gusting 6 25.0
2020-Jul-09 23:45 098 2 gusting 5 25.6
2020-Jul-09 23:30 144 2 gusting 5 25.6
2020-Jul-09 23:15 169 4 gusting 7 25.6
2020-Jul-09 23:00 146 5 gusting 7 25.6
2020-Jul-09 22:47 153 6 gusting 8 25.6
2020-Jul-09 22:30 155 6 gusting 8 25.6
2020-Jul-09 22:16 151 6 gusting 8 25.6
2020-Jul-09 22:00 160 6 gusting 7 25.6
2020-Jul-09 21:45 161 6 gusting 7 25.6
2020-Jul-09 21:30 165 6 gusting 8 26.1
2020-Jul-09 21:15 177 5 gusting 7 26.1
2020-Jul-09 21:00 154 6 gusting 8 25.6
2020-Jul-09 20:45 167 6 gusting 7 26.1
2020-Jul-09 20:30 163 5 gusting 6 26.1
2020-Jul-09 20:15 158 4 gusting 6 26.1
2020-Jul-09 20:00 134 5 gusting 8 26.1
2020-Jul-09 19:45 160 5 gusting 6 26.1
2020-Jul-09 19:30 159 4 gusting 6 26.7
2020-Jul-09 19:15 179 4 gusting 6 26.1
2020-Jul-09 19:00 151 5 gusting 6 26.1
2020-Jul-09 18:45 147 5 gusting 7 26.1
2020-Jul-09 18:32 169 5 gusting 6 26.1
2020-Jul-09 18:30 167 5 gusting 6 25.6
2020-Jul-09 18:16 186 4 gusting 6 25.0
2020-Jul-09 18:02 193 6 gusting 8 25.0
2020-Jul-09 17:46 219 6 gusting 8 24.4
2020-Jul-09 17:31 186 7 gusting 9 25.0
2020-Jul-09 17:16 184 7 gusting 9 25.0
2020-Jul-09 17:02 155 5 gusting 6 25.6
2020-Jul-09 16:46 155 5 gusting 6 25.6
2020-Jul-09 16:31 172 4 gusting 6 25.0
2020-Jul-09 16:17 151 4 gusting 6 25.0
2020-Jul-09 16:01 190 6 gusting 7 25.0
2020-Jul-09 15:46 176 6 gusting 8 25.0
2020-Jul-09 15:31 172 6 gusting 6 25.0
2020-Jul-09 15:16 188 6 gusting 6 25.0
2020-Jul-09 15:01 171 4 gusting 6 24.4
2020-Jul-09 14:46 198 5 gusting 7 24.4
2020-Jul-09 14:32 196 6 gusting 6 25.0
2020-Jul-09 14:15 184 6 gusting 8 24.4
2020-Jul-09 14:02 227 5 gusting 7 24.4
2020-Jul-09 13:45 217 5 gusting 6 24.4
2020-Jul-09 13:31 256 4 gusting 6 24.4
2020-Jul-09 13:15 212 5 gusting 6 24.4
2020-Jul-09 13:01 202 3 gusting 6 24.4
2020-Jul-09 12:45 185 4 gusting 6 24.4
2020-Jul-09 12:30 207 5 gusting 6 24.4
2020-Jul-09 12:15 199 5 gusting 6 24.4
2020-Jul-09 12:00 199 4 gusting 6 24.4
2020-Jul-09 11:45 196 3 gusting 5 24.4
2020-Jul-09 11:30 200 3 gusting 6 23.9
2020-Jul-09 11:15 167 3 gusting 6 24.4
2020-Jul-09 11:00 191 4 gusting 6 23.9
2020-Jul-09 10:45 201 5 gusting 6 23.9
2020-Jul-09 10:30 167 5 gusting 6 23.9
2020-Jul-09 10:16 174 6 gusting 6 23.9
2020-Jul-09 10:02 179 5 gusting 7 23.9
2020-Jul-09 09:46 246 6 gusting 7 24.4
2020-Jul-09 09:31 254 5 gusting 6 24.4
2020-Jul-09 09:15 244 5 gusting 7 24.4
2020-Jul-09 09:01 238 4 gusting 6 23.9
2020-Jul-09 08:46 250 4 gusting 6 23.9
2020-Jul-09 08:31 238 3 gusting 6 23.9
2020-Jul-09 08:16 213 3 gusting 5 23.9
2020-Jul-09 08:02 203 5 gusting 6 23.9
2020-Jul-09 07:46 231 6 gusting 9 24.4
2020-Jul-09 07:31 233 6 gusting 8 24.4
2020-Jul-09 07:18 231 6 gusting 9 23.9
2020-Jul-09 07:01 236 6 gusting 9 23.9
2020-Jul-09 06:46 202 6 gusting 9 23.9
2020-Jul-09 06:31 219 6 gusting 8 23.9
2020-Jul-09 06:15 219 5 gusting 6 23.9
2020-Jul-09 06:01 182 3 gusting 4 23.3
2020-Jul-09 05:46 167 1 gusting 3 23.3
2020-Jul-09 05:30 155 3 gusting 5 23.3
2020-Jul-09 05:15 160 3 gusting 6 23.3
2020-Jul-09 05:01 203 3 gusting 5 23.3
2020-Jul-09 04:46 178 3 gusting 4 23.3
2020-Jul-09 04:31 172 1 gusting 4 23.3
2020-Jul-09 04:15 186 3 gusting 5 23.3
2020-Jul-09 04:01 180 5 gusting 6 23.3
2020-Jul-09 03:45 185 3 gusting 7 23.9
2020-Jul-09 03:30 194 5 gusting 6 23.9
2020-Jul-09 03:16 172 5 gusting 7 23.9
2020-Jul-09 03:00 205 6 gusting 7 23.9
2020-Jul-09 02:45 200 3 gusting 7 23.9
2020-Jul-09 02:15 203 6 gusting 7 24.4
2020-Jul-09 02:00 212 6 gusting 9 24.4
2020-Jul-09 01:46 213 6 gusting 9 23.9
2020-Jul-09 01:30 226 4 gusting 9 24.4
2020-Jul-09 01:16 219 6 gusting 9 23.9
2020-Jul-09 01:00 234 6 gusting 9 23.9
2020-Jul-09 00:46 234 6 gusting 9 23.9
2020-Jul-09 00:30 245 6 gusting 8 23.9
2020-Jul-09 00:15 202 4 gusting 6 23.9
2020-Jul-09 00:00 215 5 gusting 7 24.4
2020-Jul-08 23:45 238 4 gusting 7 24.4
2020-Jul-08 23:30 233 6 gusting 9 24.4
2020-Jul-08 23:15 239 6 gusting 8 24.4
2020-Jul-08 23:00 243 6 gusting 10 23.9
2020-Jul-08 22:45 176 8 gusting 11 23.9
2020-Jul-08 22:30 213 8 gusting 12 24.4
2020-Jul-08 22:15 223 11 gusting 13 24.4
2020-Jul-08 22:00 231 10 gusting 13 24.4
2020-Jul-08 21:45 231 10 gusting 13 24.4
2020-Jul-08 21:32 212 10 gusting 13 24.4
2020-Jul-08 21:17 202 9 gusting 13 24.4
2020-Jul-08 21:02 201 7 gusting 11 24.4
2020-Jul-08 20:47 212 7 gusting 10 24.4
2020-Jul-08 20:31 210 7 gusting 9 24.4
2020-Jul-08 20:17 207 6 gusting 9 25.0
2020-Jul-08 20:01 198 6 gusting 9 25.0
2020-Jul-08 19:47 198 7 gusting 11 25.0
2020-Jul-08 19:31 219 8 gusting 12 25.0
2020-Jul-08 19:16 245 7 gusting 12 25.0
2020-Jul-08 19:01 212 11 gusting 14 25.0